[[{"header":{"parameterUnit":"m.s-1","parameterCategory":1,"la1":30.2991,"la2":30.254,"lo1":-89.0895,"lo2":-89.0444,"dy":0.0017,"dx":0.0017,"nx":28,"ny":28,"refTime":"2024-08-10T03:00:00:Z","depth":0,"parameterNumber":2,"parameterNumberName":"U-component_of_WINDS"},"data":[0,0,0,0,0,0,0,0,0,0,0,0,0,0,0,0,0,0,0,0,0,0,0,0,0,0,0,0,0,0,0,0,0,0,0,0,0,0,0,0,0,0,0,0,0,0,0,0,0,0,0,0,0,0,0,0,0,0,0.4024,0.4025,0,0.4166,0.4167,0.4169,0.4214,0.4213,0.4213,0.4212,0.4365,0.4369,0.4374,0,0,0,0,0,0,0,0,0,0,0,0,0,0.3802,0.3806,0.4024,0.4025,0.4027,0.4165,0.4167,0.4169,0.4214,0.4213,0.4212,0.4212,0.4363,0.4369,0.4374,0,0,0,0,0,0,0,0,0,0,0,0,0,0.3917,0.3807,0.4023,0.4066,0.4071,0.4165,0.4168,0.417,0.4214,0.4213,0.4212,0.4211,0.4361,0.4368,0.4375,0.4439,0,0,0.4396,0.4399,0,0,0,0,0,0,0,0,0.391,0.3925,0.4058,0.4063,0.4069,0.4171,0.4145,0.426,0.4215,0.416,0.4212,0.4211,0.4301,0.4313,0.4342,0.4446,0.4452,0.4397,0.4401,0.4404,0.4406,0,0,0,0,0,0,0,0.3902,0.3919,0.408,0.406,0.4067,0.4082,0.4097,0.4167,0.4235,0.4165,0.4168,0.4184,0.4304,0.4335,0.4346,0.4455,0.4397,0.4403,0.4407,0.441,0.4626,0.4627,0,0,0,0,0,0,0.3886,0.3912,0.4076,0.4084,0.3985,0.4087,0.4103,0.4139,0.4234,0.4248,0.4185,0.4186,0.4324,0.4338,0.4352,0.4437,0.4404,0.4411,0.4415,0.4624,0.4626,0.4628,0,0,0,0,0,0,0.3881,0.39,0.407,0.3999,0.4022,0.4091,0.4132,0.4143,0.4174,0.4249,0.4263,0.4204,0.4324,0.4342,0.4418,0.4443,0.4414,0.442,0.4622,0.4625,0.4627,0.4606,0,0,0,0,0,0,0.3874,0.3898,0.392,0.3999,0.4026,0.413,0.4133,0.4146,0.4185,0.4187,0.427,0.4283,0.4324,0.4407,0.4425,0.4452,0.4426,0.462,0.4623,0.4626,0.4605,0.4607,0.4609,0,0,0,0,0,0.3866,0.3908,0.392,0.394,0.4054,0.4131,0.4147,0.4191,0.4187,0.4212,0.4262,0.4281,0.4437,0.4415,0.4435,0.4465,0.4619,0.4623,0.4626,0.4604,0.4607,0.4609,0,0,0,0,0,0,0.3831,0.3919,0.3934,0.4002,0.4059,0.4138,0.4171,0.4192,0.4252,0.4252,0.4307,0.4326,0.4399,0.4439,0.4412,0.4536,0.453,0.4537,0.4506,0.4509,0.4512,0.4501,0.4432,0,0,0,0,0,0.383,0.3883,0.3959,0.4012,0.404,0.41,0.4135,0.4165,0.4227,0.4252,0.4306,0.4368,0.4432,0.4473,0.4535,0.4611,0.4633,0.4642,0.4645,0.4646,0.4653,0.4702,0.4709,0.4639,0.4639,0.4639,0,0,0.3831,0.3886,0.3916,0.4006,0.4053,0.4111,0.412,0.4178,0.4223,0.4261,0.4337,0.438,0.4453,0.453,0.4567,0.4567,0.4677,0.465,0.4651,0.4657,0.4706,0.4713,0.4719,0.4641,0.4641,0.464,0,0,0.3862,0.3906,0.3958,0.4006,0.4078,0.4119,0.4132,0.421,0.424,0.4316,0.4348,0.4403,0.451,0.4563,0.4603,0.4661,0.4683,0.468,0.4692,0.474,0.4746,0.4751,0.4776,0.4784,0.4686,0.4686,0.4686,0,0.3854,0.3938,0.3983,0.4041,0.4083,0.412,0.4176,0.4221,0.431,0.434,0.4337,0.4476,0.4528,0.4621,0.4636,0.4666,0.4686,0.4671,0.474,0.4746,0.4752,0.4777,0.4786,0.4685,0.4685,0.4685,0.4685,0,0.3927,0.3986,0.402,0.4104,0.415,0.4206,0.4264,0.4306,0.4333,0.4376,0.4458,0.4521,0.46,0.4624,0.4651,0.4724,0.4722,0.4729,0.4725,0.4757,0.4782,0.4791,0.4684,0.4684,0.4685,0.4685,0,0,0.3936,0.4048,0.406,0.4102,0.4186,0.4234,0.4296,0.4372,0.4409,0.4471,0.4527,0.4619,0.4629,0.4675,0.4709,0.4751,0.4799,0.4754,0.4757,0.4764,0.489,0.4885,0.4895,0.4814,0.4816,0.4817,0.4885,0,0.398,0.4087,0.4133,0.4222,0.428,0.4319,0.4374,0.4434,0.4478,0.4537,0.4586,0.4652,0.4657,0.4686,0.4729,0.4783,0.4825,0.4779,0.4872,0.4874,0.4854,0.4907,0.4901,0.4961,0.4894,0.4896,0.4897,0,0.4044,0.4106,0.4201,0.4284,0.431,0.4357,0.4434,0.4488,0.4561,0.459,0.4644,0.4678,0.4749,0.474,0.4843,0.4811,0.4852,0.4885,0.4889,0.4901,0.4888,0.4924,0.4981,0.4991,0.4911,0.491,0.4909,0,0.4045,0.4153,0.4225,0.4259,0.4357,0.4391,0.4434,0.4504,0.4549,0.4618,0.4649,0.4725,0.4767,0.4828,0.4883,0.487,0.4983,0.4977,0.5014,0.5013,0.5036,0.5035,0.5105,0.5058,0.5058,0.5058,0.5058,0,0.409,0.4147,0.4228,0.4272,0.434,0.4395,0.4461,0.4508,0.4572,0.463,0.4669,0.4724,0.4792,0.4857,0.4901,0.4983,0.5001,0.503,0.5042,0.5028,0.5025,0.5057,0.5056,0.506,0.506,0.5059,0.5059,0,0.4102,0.4158,0.424,0.4327,0.4351,0.4397,0.4474,0.4522,0.4569,0.4643,0.4663,0.4738,0.4817,0.4878,0.4981,0.5011,0.51,0.511,0.5074,0.5081,0.5116,0.5113,0.5211,0.523,0.5168,0.5168,0.5168,0,0.4127,0.4173,0.4266,0.4307,0.435,0.4415,0.4462,0.4519,0.4567,0.4657,0.4695,0.4777,0.4845,0.4971,0.5037,0.5118,0.5134,0.5163,0.5146,0.5133,0.5139,0.5137,0.5145,0.5165,0.5165,0.5166,0.5166,0,0.4168,0.4195,0.4259,0.4336,0.4391,0.4454,0.4518,0.455,0.4621,0.4674,0.4755,0.4808,0.4915,0.4998,0.5087,0.5136,0.5165,0.5171,0.5185,0.5172,0.5151,0.5168,0.5084,0.5168,0.5168,0.5168,0.5168,0.5168,0.419,0.4235,0.4309,0.4382,0.4436,0.4497,0.4548,0.4603,0.467,0.4761,0.4792,0.4877,0.4956,0.5078,0.5129,0.52,0.5201,0.5219,0.5225,0.5229,0.5231,0.5138,0.5216,0.5216,0.5216,0.5216,0.5216,0,0.4236,0.4287,0.4353,0.4443,0.4502,0.4523,0.4597,0.4646,0.472,0.4789,0.4857,0.4955,0.5037,0.5112,0.5199,0.5242,0.5258,0.5263,0.5262,0.5275,0.5222,0.5203,0.5249,0.5249,0.5249,0.5249,0.5249,0.5249,0.4267,0.4345,0.4382,0.4491,0.4542,0.4625,0.4666,0.4725,0.4782,0.4888,0.4956,0.5004,0.5079,0.5173,0.5252,0.5272,0.5305,0.5307,0.5331,0.5281,0.5277,0.5273,0.5256,0.5313,0.5313,0.5379,0.5379,0.538]},{"header":{"parameterUnit":"m.s-1","parameterCategory":1,"la1":30.2991,"la2":30.254,"lo1":-89.0895,"lo2":-89.0444,"dy":0.0017,"dx":0.0017,"nx":28,"ny":28,"refTime":"2024-08-10T03:00:00:Z","depth":0,"parameterNumber":3,"parameterNumberName":"V-component_of_WINDS"},"data":[0,0,0,0,0,0,0,0,0,0,0,0,0,0,0,0,0,0,0,0,0,0,0,0,0,0,0,0,0,0,0,0,0,0,0,0,0,0,0,0,0,0,0,0,0,0,0,0,0,0,0,0,0,0,0,0,0,0,-2.1876,-2.1875,0,-2.1774,-2.1773,-2.1772,-2.1707,-2.1706,-2.1706,-2.1706,-2.1597,-2.1594,-2.1592,0,0,0,0,0,0,0,0,0,0,0,0,0,-2.2009,-2.2007,-2.1877,-2.1875,-2.1874,-2.1775,-2.1773,-2.1772,-2.1707,-2.1706,-2.1706,-2.1705,-2.1597,-2.1594,-2.1591,0,0,0,0,0,0,0,0,0,0,0,0,0,-2.1934,-2.2006,-2.1877,-2.183,-2.1824,-2.1775,-2.1773,-2.1771,-2.1707,-2.1706,-2.1706,-2.1705,-2.1598,-2.1595,-2.1591,-2.1579,0,0,-2.1579,-2.1578,0,0,0,0,0,0,0,0,-2.1938,-2.1929,-2.1838,-2.1833,-2.1827,-2.1753,-2.178,-2.1707,-2.1707,-2.1751,-2.1706,-2.1705,-2.1649,-2.1641,-2.1623,-2.1574,-2.1569,-2.1579,-2.1577,-2.1575,-2.1574,0,0,0,0,0,0,0,-2.1943,-2.1933,-2.1836,-2.1837,-2.183,-2.1811,-2.18,-2.1766,-2.1704,-2.1747,-2.1742,-2.1732,-2.1646,-2.1627,-2.162,-2.1567,-2.1579,-2.1576,-2.1573,-2.1572,-2.1499,-2.1499,0,0,0,0,0,0,-2.1957,-2.1938,-2.1839,-2.1833,-2.1882,-2.181,-2.1797,-2.1777,-2.1705,-2.1693,-2.1732,-2.1729,-2.1633,-2.1624,-2.1616,-2.1594,-2.1575,-2.1571,-2.1569,-2.1499,-2.1499,-2.1499,0,0,0,0,0,0,-2.196,-2.1949,-2.1843,-2.1884,-2.1869,-2.1808,-2.1786,-2.1775,-2.1756,-2.1693,-2.1681,-2.1724,-2.1633,-2.1621,-2.1588,-2.1589,-2.157,-2.1566,-2.1498,-2.1499,-2.1499,-2.1553,0,0,0,0,0,0,-2.1964,-2.195,-2.1947,-2.1884,-2.1867,-2.182,-2.1786,-2.1774,-2.175,-2.1745,-2.1683,-2.1672,-2.1631,-2.1594,-2.1584,-2.1584,-2.1563,-2.1498,-2.1498,-2.1499,-2.155,-2.1555,-2.1559,0,0,0,0,0,-2.1969,-2.1965,-2.1947,-2.1935,-2.1862,-2.182,-2.181,-2.1765,-2.1751,-2.1745,-2.1704,-2.1674,-2.1591,-2.1591,-2.1579,-2.1578,-2.1497,-2.1498,-2.1499,-2.1549,-2.1554,-2.1559,0,0,0,0,0,0,-2.2029,-2.1957,-2.1935,-2.1912,-2.1873,-2.1809,-2.1801,-2.1772,-2.1735,-2.1732,-2.1676,-2.1662,-2.1634,-2.1602,-2.1604,-2.156,-2.154,-2.1539,-2.1582,-2.1587,-2.1591,-2.1598,-2.156,0,0,0,0,0,-2.2039,-2.2013,-2.1951,-2.1936,-2.1918,-2.1863,-2.1843,-2.1811,-2.1768,-2.175,-2.1707,-2.1664,-2.1628,-2.1606,-2.1569,-2.1545,-2.1529,-2.1538,-2.1543,-2.1546,-2.1545,-2.1527,-2.1529,-2.1502,-2.1502,-2.1502,0,0,-2.2061,-2.2018,-2.2005,-2.1947,-2.1913,-2.1885,-2.1849,-2.1822,-2.1799,-2.1746,-2.1712,-2.1678,-2.1626,-2.1597,-2.1582,-2.157,-2.1549,-2.1547,-2.1551,-2.1548,-2.1528,-2.1531,-2.1533,-2.1502,-2.1502,-2.1502,0,0,-2.2085,-2.2052,-2.2034,-2.2001,-2.195,-2.1913,-2.1909,-2.1849,-2.1824,-2.179,-2.1748,-2.1719,-2.1659,-2.1623,-2.1597,-2.1605,-2.1574,-2.1595,-2.1616,-2.1599,-2.1601,-2.1603,-2.1603,-2.1604,-2.1594,-2.1594,-2.1594,0,-2.2118,-2.2076,-2.2029,-2.2003,-2.1977,-2.1928,-2.1909,-2.1878,-2.1817,-2.1799,-2.1787,-2.1709,-2.1671,-2.1631,-2.1632,-2.1614,-2.1605,-2.1601,-2.1605,-2.1606,-2.1607,-2.1606,-2.1607,-2.1597,-2.1596,-2.1596,-2.1596,0,-2.2117,-2.2088,-2.208,-2.2023,-2.1996,-2.1974,-2.1921,-2.1899,-2.1869,-2.1833,-2.1796,-2.1748,-2.17,-2.1688,-2.1659,-2.1643,-2.1637,-2.1616,-2.1594,-2.1613,-2.1611,-2.1611,-2.1601,-2.16,-2.1599,-2.1598,0,0,-2.2177,-2.2093,-2.2091,-2.2063,-2.2002,-2.1977,-2.1951,-2.1905,-2.1886,-2.1845,-2.182,-2.1769,-2.1748,-2.1718,-2.1684,-2.1669,-2.1675,-2.1648,-2.1646,-2.1653,-2.1651,-2.1667,-2.1667,-2.1654,-2.1654,-2.1654,-2.1654,0,-2.219,-2.2143,-2.2099,-2.2066,-2.2037,-2.1989,-2.1965,-2.1924,-2.1888,-2.1856,-2.1816,-2.178,-2.1757,-2.1738,-2.1721,-2.1678,-2.1673,-2.1677,-2.1627,-2.1626,-2.1641,-2.1667,-2.1684,-2.1687,-2.1654,-2.1654,-2.1654,0,-2.2201,-2.2162,-2.2127,-2.2066,-2.2052,-2.2032,-2.1985,-2.1956,-2.1906,-2.1881,-2.1847,-2.1811,-2.1777,-2.176,-2.1712,-2.1715,-2.1692,-2.1667,-2.1666,-2.1659,-2.1641,-2.1659,-2.1687,-2.1687,-2.1653,-2.1653,-2.1653,0,-2.2245,-2.2184,-2.2155,-2.2133,-2.2062,-2.2048,-2.2018,-2.1968,-2.1942,-2.19,-2.1882,-2.1836,-2.181,-2.1774,-2.1725,-2.1717,-2.1681,-2.166,-2.1657,-2.1658,-2.1651,-2.1652,-2.1675,-2.1639,-2.1639,-2.1639,-2.1639,0,-2.2264,-2.2244,-2.2173,-2.2155,-2.213,-2.2078,-2.2053,-2.2018,-2.1974,-2.1946,-2.1901,-2.1875,-2.1812,-2.1778,-2.1739,-2.1703,-2.1692,-2.1669,-2.1659,-2.1672,-2.1675,-2.1656,-2.1654,-2.1639,-2.1639,-2.1639,-2.1639,0,-2.2309,-2.2262,-2.2226,-2.2161,-2.2144,-2.2128,-2.2072,-2.2051,-2.2012,-2.1977,-2.1965,-2.1905,-2.1861,-2.1809,-2.1749,-2.1722,-2.169,-2.1675,-2.1707,-2.1701,-2.17,-2.17,-2.171,-2.1708,-2.1675,-2.1676,-2.1676,0,-2.2324,-2.2307,-2.2241,-2.222,-2.2191,-2.2157,-2.213,-2.2077,-2.2051,-2.1992,-2.1977,-2.1931,-2.1891,-2.1824,-2.1773,-2.1725,-2.1708,-2.1715,-2.1701,-2.1714,-2.1706,-2.1707,-2.1704,-2.1718,-2.1719,-2.1719,-2.172,0,-2.2354,-2.2331,-2.2295,-2.2251,-2.222,-2.2182,-2.2142,-2.2126,-2.2065,-2.2036,-2.1993,-2.1962,-2.19,-2.1854,-2.18,-2.1765,-2.1731,-2.1725,-2.1721,-2.1734,-2.1753,-2.1741,-2.1716,-2.1725,-2.1724,-2.1724,-2.1724,-2.1723,-2.2383,-2.2365,-2.2315,-2.2276,-2.224,-2.2203,-2.2179,-2.2138,-2.2101,-2.2048,-2.2018,-2.1974,-2.1921,-2.1846,-2.1812,-2.1775,-2.1763,-2.1759,-2.1757,-2.1757,-2.176,-2.176,-2.1765,-2.1765,-2.1765,-2.1765,-2.1764,0,-2.2409,-2.2374,-2.2339,-2.2284,-2.2252,-2.2225,-2.2178,-2.2153,-2.2116,-2.2071,-2.2032,-2.198,-2.1934,-2.1879,-2.1829,-2.1809,-2.1792,-2.1798,-2.1798,-2.179,-2.1774,-2.1782,-2.1812,-2.1812,-2.1812,-2.1812,-2.1812,-2.1812,-2.2419,-2.2386,-2.2357,-2.2304,-2.2269,-2.2227,-2.2202,-2.2167,-2.213,-2.2075,-2.2037,-2.2002,-2.1951,-2.1897,-2.1852,-2.1837,-2.1819,-2.1829,-2.1809,-2.1795,-2.1791,-2.1787,-2.1794,-2.1826,-2.1826,-2.1827,-2.1827,-2.1827]}]]